Location: Béaulencourt
(50.0796°N, 2.8795°E)
Time: 22:44:33
(UTC+00:00)

Cosmos 1943 Rocket - Pass Details

Date: 20 January 2026
Orbit: 812 x 842 km, 71.0° (Epoch: 9 February)

Event Time Altitude Azimuth Distance (km) Brightness Sun altitude
Exits shadow 03:49:48 33° 100° (E) 1,352 3.6 -35.9°
Drops below altitude 10° 03:54:21 10° 44° (NE) 2,410 5.1 -35.2°
Sets 03:56:59 0° 35° (NE) 3,348 5.9 -34.8°
